Location: Bavegemberg
(50.9500°N, 3.8833°E)
Time: 15:02:33
(UTC+00:00)

Meteor 2-5 Rocket - Pass Details

Date: 23 May 2024
Orbit: 832 x 911 km, 81.2° (Epoch: 16 June)

Event Time Altitude Azimuth Distance (km) Brightness Sun altitude
Exits shadow 02:43:02 - 197° (SSW) 2,882 5.9 -8.0°
Reaches altitude 10° 02:43:50 10° 198° (SSW) 2,579 5.7 -7.9°
Maximum altitude 02:49:44 76° 284° (WNW) 943 3.9 -7.3°
Drops below altitude 10° 02:55:44 10° 10° (N) 2,612 7.2 -6.6°
Sets 02:58:13 0° 12° (NNE) 3,555 8.0 -6.4°
